INMARSAT 5-F4

Last updated on Sun Apr 12 2026 00:02:54 GMT+0000 (Coordinated Universal Time)

1 42698U 17025A 26101.53187078 .00000000 00000+0 00000+0 0 9991 2 42698 0.0185 202.1892 0000143 197.6103 47.9267 1.00269956 32608
UTC large
Height (km)
Speed (km/s)
/
Latitude / Longitude
Inclination (degrees)
Orbital Period (minutes)
Azimuth
Elevation
Range (km)
Doppler Factor

Next 0 passes for location: London (51.5072 / 0.1276)

Sorry there are no passes over London.
INMARSAT 5-F4